Location: Chalencon
(44.8778°N, 4.5741°E)
Time: 15:12:52
(UTC+00:00)

Daily predictions for brighter satellites

Satellite Brightness Start Highest point End
(mag) Time Altitude Azimuth Time Altitude Azimuth Time Altitude Azimuth
BREEZE-M DEB (TANK) 3.5 18:56:54 10° WSW 18:59:39 79° NNW 19:05:57 10° ENE
Cosmos 1092 Rocket 4.0 18:55:29 10° N 19:01:43 69° E 19:07:52 10° SSE
Cosmos 2297 Rocket 3.2 18:59:47 10° SSE 19:04:13 24° ESE 19:08:41 10° NE
Cosmos 2058 3.3 19:00:15 10° N 19:04:18 46° ENE 19:08:17 10° SSE
SL-08 RB Rocket 4.3 19:01:39 10° S 19:06:15 63° W 19:10:51 10° NNW
Cosmos 405 3.0 19:02:53 10° SSW 19:06:20 84° W 19:09:51 10° N
Lacrosse 5 rocket 3.9 19:03:53 10° NW 19:06:35 17° N 19:09:23 10° NNE
ARGOS 4.2 19:02:12 10° S 19:07:23 50° W 19:12:37 10° NNW
YAOGAN 1 4.4 19:04:16 10° SSW 19:08:13 34° W 19:12:11 10° NNW
FALCON 9 DEB 3.9 19:07:12 10° SSW 19:09:45 25° SE 19:12:18 10° E
Resurs 01 Rocket 3.1 19:09:13 10° ESE 19:12:31 21° ENE 19:15:50 10° NNE
Cosmos 2219 4.1 19:08:48 10° SSE 19:13:20 26° ESE 19:17:54 10° NE
Resurs 1-3 4.4 19:10:11 10° SE 19:14:06 33° ENE 19:18:02 10° N
BREEZE-M DEB (TANK) 3.5 19:11:22 10° W 19:14:47 71° NNW 19:25:53 10° ENE
Cosmos 2333 Rocket 2.9 19:11:07 10° NNW 19:16:45 57° WSW 19:22:20 10° S
SJ-6B 2.8 19:14:19 10° SSE 19:17:59 60° ENE 19:21:43 10° N
SAR-Lupe-4 4.1 19:15:30 10° N 19:19:03 63° WNW 19:22:35 10° SSW
Cosmos 1689 Rocket 3.9 19:16:37 10° N 19:19:15 34° WNW 19:21:49 10° SW
Cosmos 2084 Rocket 4.4 19:18:13 10° S 19:21:21 22° ESE 19:24:31 10° ENE
CZ-2C R/B 3.7 19:16:28 10° N 19:21:29 51° WNW 19:26:35 10° SW
FALCON 9 DEB 3.4 19:18:59 10° SSW 19:21:46 34° SE 19:24:34 10° ENE
Cosmos 389 Rocket 3.1 19:18:57 10° SSE 19:22:11 35° E 19:25:28 10° NNE
ERS-2 2.6 19:20:09 10° N 19:23:47 65° WNW 19:27:22 10° SSW
CSL-04 Rocket 4.4 19:19:11 10° S 19:24:20 54° W 19:29:31 10° NNW
Ariane Rocket 3.2 19:19:33 10° SE 19:24:27 53° ENE 19:29:22 10° N
Cosmos 614 Rocket 3.9 19:20:31 10° S 19:25:34 65° ESE 19:30:39 10° NNE
Cosmos 2251 Rocket 3.6 19:21:58 10° SSW 19:27:20 89° WNW 19:32:42 10° NNE
ATLAS 3B R/B 3.0 19:24:06 10° NW 19:31:08 76° WSW 19:38:28 10° SSE
Cosmos 2279 Rocket 4.1 19:26:22 10° SSE 19:32:22 55° E 19:38:24 10° NNE
MOS 1 4.3 19:32:10 10° SSE 19:37:46 73° ENE 19:43:25 10° N
Cosmos-2242 4.2 19:35:48 13° SE 19:38:37 24° E 19:42:06 10° NE
Cosmos 1980 3.8 19:33:32 10° NNW 19:39:13 65° ENE 19:44:12 13° SE
SL-16 R/B 3.5 19:34:51 10° N 19:39:34 26° NE 19:43:26 13° E
Cosmos 2026 Rocket 4.1 19:33:42 10° N 19:39:48 79° W 19:45:56 10° S
USA 215 4.2 19:35:04 10° E 19:41:03 39° NNE 19:47:01 10° NW
Cosmos 2151 3.8 19:37:26 10° N 19:41:24 34° ENE 19:44:10 17° SE
FALCON 9 DEB 3.1 19:40:36 10° SW 19:43:32 45° SE 19:46:29 10° ENE
SPOT 3 Rocket 4.1 19:40:39 14° SE 19:44:45 42° ENE 19:49:37 10° N
Cosmos 1455 3.7 19:42:55 10° SSW 19:46:25 38° WNW 19:49:57 10° N
COSMOS 2455 3.7 19:42:33 10° SSE 19:47:22 26° ESE 19:52:13 10° NE
IRS-1A Rocket 4.3 19:44:31 10° SSE 19:50:06 89° WSW 19:55:52 10° NNW
SL-4 R/B 2.3 19:46:13 10° SW 19:50:24 53° SE 19:54:54 10° ENE
USA 186 3.8 19:50:15 10° SSW 19:53:07 28° W 19:55:54 10° NW
Cosmos 2219 Rocket 3.7 19:48:37 10° NW 19:53:41 34° WSW 19:58:43 10° SSW
BREEZE M DEB (TANK) 4.1 19:50:50 10° SSW 19:53:57 33° SE 20:01:32 10° ENE
BREEZE-M DEB (TANK) 4.3 19:53:28 10° WSW 19:55:07 15° SSW 19:57:21 10° S
IGS 5A 3.9 19:54:21 21° SE 19:56:44 43° ENE 20:00:41 10° N
Cosmos 1076 Rocket 3.5 19:53:20 10° N 19:57:42 87° WSW 20:01:45 11° S
OBJECT-B 2.2 19:54:48 10° SSW 19:57:49 38° W 20:00:54 10° NNW
COSMOS 2428 4.0 19:52:44 10° NW 19:58:00 38° WSW 20:03:14 10° S
Landsat 7 4.3 19:55:13 20° SE 19:58:09 43° ENE 20:02:40 10° N
Cosmos 2266 Rocket 4.3 19:52:06 10° N 19:58:15 48° ENE 20:02:36 19° SE
ATLAS 5 CENTAUR R/B 2.8 19:57:46 10° WNW 19:59:22 21° SW 20:01:00 13° S
Cosmos 2292 Rocket 4.1 19:57:52 10° N 20:04:18 89° W 20:08:34 13° S
Cosmos 2344 4.0 19:57:34 10° SW 20:04:58 64° NW 20:12:55 10° NE
Cosmos 1356 4.3 20:02:15 10° NNW 20:05:34 47° W 20:08:40 11° S
ARIANE 5 R/B 3.9 20:04:04 20° E 20:05:34 25° ENE 20:09:08 10° NNE
Cosmos 407 Rocket 3.4 20:01:02 10° SSW 20:06:08 79° ESE 20:11:21 10° NNE
USA 245 4.3 20:05:59 23° E 20:06:26 24° ENE 20:09:01 10° NNE
IRIDIUM 104 4.3 20:05:03 10° S 20:10:16 90° NW 20:15:31 10° N
Cosmos 1023 Rocket 4.3 20:06:09 10° SSW 20:11:13 80° ESE 20:16:19 10° NNE
MetOp-B 4.3 20:09:16 23° SE 20:12:32 57° ENE 20:17:47 10° N
Meteor 2-3 Rocket 3.8 20:08:33 10° N 20:14:16 64° ENE 20:17:47 23° SSE
Cosmos 405 Rocket 4.1 20:14:00 10° NNW 20:17:41 37° W 20:21:17 10° SSW
Cosmos 44 Rocket 3.9 20:13:06 10° S 20:17:43 37° ESE 20:22:28 10° NE
Meteor 1-27 4.5 20:14:09 19° SSE 20:18:06 50° E 20:23:41 10° NNE
Cosmos 1140 Rocket 3.4 20:14:17 10° SSW 20:19:25 90° ESE 20:24:35 10° NNE
IRIDIUM 114 4.5 20:14:13 10° S 20:19:25 75° W 20:24:40 10° N
Cosmos 1812 Rocket 4.0 20:16:54 10° SSW 20:21:18 65° W 20:25:45 10° N
Cosmos 1954 Rocket 4.1 20:19:29 15° S 20:23:32 52° ESE 20:28:33 10° NNE
CZ-2C R/B 3.6 20:21:01 10° NNE 20:25:25 61° ESE 20:27:43 27° S
Timation 2 Rocket 4.0 20:19:46 10° SSW 20:26:21 83° ESE 20:32:42 10° NNE
Cosmos 2237 Rocket 2.6 20:21:27 10° NNW 20:26:59 59° WSW 20:30:48 20° S
Cosmos 2263 Rocket 4.0 20:34:38 14° ENE 20:34:38 14° ENE 20:36:01 10° ENE
Spot 2 Rocket 3.7 20:32:07 35° SE 20:33:55 52° ENE 20:38:50 10° N
CARTOSAT-1 4.1 20:33:28 36° E 20:34:14 40° ENE 20:38:16 10° N
BREEZE M DEB (TANK) 3.1 20:26:22 10° WSW 20:34:34 62° NNW 20:36:34 20° NE
Cosmos 1766 Rocket 3.7 20:31:16 10° N 20:35:31 52° ENE 20:36:22 45° ESE
FALCON 9 DEB 3.5 20:37:40 10° WSW 20:40:41 54° NNW 20:41:37 36° NNE
Cosmos 2227 Rocket 2.3 20:35:28 10° SSW 20:41:07 76° WNW 20:46:50 10° NNE
Cosmos 2082 3.6 20:37:14 18° S 20:41:17 59° ESE 20:46:49 10° NNE
Cosmos 1633 3.7 20:38:22 10° NNW 20:41:45 40° W 20:43:19 25° SW
Okean 3 Rocket 3.6 20:40:12 10° N 20:44:43 67° E 20:45:39 52° SE
FALCON 9 DEB 4.0 20:42:26 10° W 20:45:20 42° NNW 20:46:28 28° NNE
Cosmos 1655 Rocket 4.3 20:40:13 10° NNW 20:46:26 66° W 20:50:54 19° S
Lacrosse 5 rocket 3.7 20:43:58 10° NNW 20:47:06 19° NNE 20:49:59 11° ENE
Cosmos 2297 Rocket 2.9 20:42:22 10° SW 20:47:52 54° WNW 20:53:26 10° NNE
Cosmos 1869 3.1 20:47:58 66° SSE 20:48:23 74° E 20:52:20 10° NNE
Resurs 01 Rocket 2.6 20:46:10 22° SSW 20:48:43 44° W 20:53:00 10° NNW
Meteor 1-4 Rocket 2.6 20:50:30 61° NE 20:50:30 61° NE 20:53:34 10° NNE
Cosmos 468 Rocket 4.3 20:45:41 10° NNW 20:50:41 50° ENE 20:51:46 43° ESE
Genesis I 4.0 20:48:01 10° NW 20:51:51 44° WSW 20:52:33 40° SSW
Cosmos 2219 4.0 20:51:43 10° SW 20:57:09 50° WNW 21:02:38 10° NNE
FALCON 9 DEB 4.5 20:54:38 10° W 20:57:27 34° NNW 20:58:12 29° N
Cosmos 1763 Rocket 3.5 20:58:32 10° NNW 21:03:34 61° ENE 21:04:17 55° ESE
Terra 2.3 21:03:52 43° E 21:04:08 43° ENE 21:08:38 10° N
Meteor 2-8 Rocket 4.4 21:02:56 29° S 21:06:21 87° W 21:12:30 10° N
BREEZE-M DEB (TANK) 4.0 21:07:52 10° WNW 21:08:46 22° W 21:08:46 22° W
Cosmos 540 Rocket 4.1 21:06:27 10° N 21:11:16 40° ENE 21:11:41 39° ENE
SPOT 5 2.6 21:14:08 73° ESE 21:14:23 76° ENE 21:19:13 10° N
SPOT 1/Viking Rocket 4.1 21:14:16 36° SSW 21:16:06 53° W 21:21:14 10° NNW
Meteor 2-2 Rocket 4.2 21:15:41 58° SE 21:16:32 65° E 21:22:10 10° NNE
NOSS 3-1 (C) 4.1 21:09:41 10° NW 21:17:08 69° NE 21:20:23 41° ESE
Cosmos 1842 Rocket 3.8 21:20:26 57° NE 21:20:26 57° NE 21:24:14 10° NNE
USA 215 3.2 21:21:35 48° ESE 21:23:38 87° NE 21:30:13 10° NW
SL-16 R/B 2.5 21:18:30 10° NNW 21:24:05 58° WSW 21:25:19 48° SSW
SL-4 R/B 3.1 21:25:49 10° W 21:30:11 49° NNW 21:33:32 17° NE
SL-08 ROCKET BODY 4.3 21:24:56 10° N 21:30:59 67° E 21:31:36 62° ESE
COSMOS 2455 3.3 21:26:58 10° SW 21:32:53 59° NW 21:38:51 10° NNE
ERS-1 Rocket 3.0 21:33:53 66° SW 21:34:17 69° WSW 21:39:19 10° NNW
Cosmos 1408 Rocket 3.8 21:30:56 10° NNW 21:34:52 65° WNW 21:34:52 65° WNW
Cosmos 2221 3.0 21:41:54 57° NNW 21:41:54 57° NNW 21:45:27 10° N
ARIANE 5 R/B 3.8 21:41:36 34° WSW 21:41:52 35° W 21:45:54 10° NNW
Cosmos 1862 4.2 21:38:32 10° NNW 21:41:30 47° NNW 21:41:30 47° NNW
Meteor 2-15 Rocket 4.4 21:43:55 55° SSW 21:45:19 76° W 21:51:25 10° N
Cosmos 1943 3.3 21:44:28 10° NNW 21:50:03 59° ENE 21:50:06 59° ENE
Cosmos 1745 Rocket 3.9 21:46:48 10° N 21:53:06 70° E 21:53:25 68° E
Cosmos 1570 Rocket 4.3 21:48:24 10° NNW 21:53:15 58° NE 21:53:15 58° NE
SeaSat 1 4.3 21:49:35 10° NE 21:51:18 20° ENE 21:51:18 20° ENE
Cosmos 1743 Rocket 4.3 21:49:45 10° N 21:53:02 51° NNW 21:53:02 51° NNW
Cosmos 1709 Rocket 4.5 21:52:18 10° N 21:58:09 45° ENE 21:58:09 45° ENE
S3M 3.9 22:05:25 80° SE 22:05:39 81° E 22:12:05 10° N
Cosmos 1741 Rocket 4.4 22:05:12 54° W 22:05:44 57° WNW 22:10:57 10° NNE
BREEZE-M DEB (TANK) 4.2 22:01:24 10° WNW 22:06:20 40° WNW 22:06:20 40° WNW
Cosmos 2263 Rocket 2.3 22:16:15 72° NNW 22:16:15 72° NNW 22:21:31 10° NNE
Aureole 1 Rocket 4.0 22:17:34 53° WNW 22:17:47 54° WNW 22:22:20 10° N
Cosmos 1386 Rocket 4.4 22:16:26 10° NNW 22:22:22 74° W 22:22:22 74° W
USA 229 DEB 3.8 22:19:05 10° NW 22:26:26 76° SW 22:27:01 72° SSW
USA 229 3.8 22:19:10 10° NW 22:26:32 77° SW 22:27:08 72° SSW
Lacrosse 5 rocket 3.0 22:22:47 10° NW 22:25:35 35° NNW 22:25:35 35° NNW
Cosmos 1844 Rocket 4.4 22:30:56 21° ENE 22:30:56 21° ENE 22:33:06 10° NE
ALOS 2 4.3 22:35:37 28° NNE 22:35:37 28° NNE 22:38:03 10° N
Cosmos 1603 4.3 22:33:12 10° NNW 22:37:52 50° WNW 22:37:52 50° WNW
Terra 3.8 22:42:44 22° W 22:42:44 22° W 22:45:47 10° NW
NOSS 3-1 (A) 4.1 22:36:52 10° NW 22:44:28 68° WSW 22:45:03 66° SW
SL-4 R/B 4.1 23:06:16 10° WNW 23:09:09 29° NW 23:09:09 29° NW
Cosmos 2184 Rocket 4.3 23:09:20 10° N 23:14:58 61° NE 23:14:58 61° NE
Cosmos 2315 Rocket 4.4 23:16:01 57° WNW 23:16:01 57° WNW 23:22:03 10° N
ATLAS 5 CENTAUR R/B 3.9 23:20:01 10° NNW 23:24:39 28° NE 23:27:06 21° ENE
SeaSat 1 3.7 23:27:04 10° NNE 23:31:05 36° NW 23:31:05 36° NW
Cosmos 1844 4.3 23:41:40 53° NNE 23:41:40 53° NNE 23:45:59 10° NNE
Cosmos 2074 Rocket 4.2 23:35:48 10° N 23:41:12 66° NNW 23:41:12 66° NNW
USA 281 3.5 23:43:08 56° ENE 23:43:38 57° ENE 23:50:03 10° NNW
